"Datum/tijd (MEZT)";"Astronomisch 1minuut standen";"meting 1minuut standen";"2-uur lopend gemiddelde opzet";"seiche"
2024-04-07 10:00;-130;-103;29.816666666667;-2.8166666666667
2024-04-07 10:01;-129;-104;29.918032786885;-4.9180327868852
2024-04-07 10:02;-128;-103;30.032258064516;-5.0322580645161
2024-04-07 10:03;-128;-103;30.142857142857;-5.1428571428571
2024-04-07 10:04;-127;-102;30.234375;-5.234375
2024-04-07 10:05;-127;-101;30.307692307692;-4.3076923076923
2024-04-07 10:06;-126;-99;30.348484848485;-3.3484848484848
2024-04-07 10:07;-126;-97;30.388059701493;-1.3880597014925
2024-04-07 10:08;-125;-96;30.441176470588;-1.4411764705882
2024-04-07 10:09;-124;-95;30.507246376812;-1.5072463768116
2024-04-07 10:10;-124;-95;30.6;-1.6
2024-04-07 10:11;-123;-95;30.704225352113;-2.7042253521127
2024-04-07 10:12;-122;-95;30.819444444444;-3.8194444444444
2024-04-07 10:13;-122;-96;30.931506849315;-4.9315068493151
2024-04-07 10:14;-121;-96;31.027027027027;-6.027027027027
2024-04-07 10:15;-120;-95;31.106666666667;-6.1066666666667
2024-04-07 10:16;-120;-93;31.171052631579;-4.1710526315789
2024-04-07 10:17;-119;-92;31.233766233766;-4.2337662337662
2024-04-07 10:18;-118;-90;31.294871794872;-3.2948717948718
2024-04-07 10:19;-118;-88;31.367088607595;-1.3670886075949
2024-04-07 10:20;-117;-87;31.45;-1.45
2024-04-07 10:21;-116;-86;31.543209876543;-1.5432098765432
2024-04-07 10:22;-116;-86;31.646341463415;-1.6463414634146
2024-04-07 10:23;-115;-86;31.759036144578;-2.7590361445783
2024-04-07 10:24;-114;-86;31.869047619048;-3.8690476190476
2024-04-07 10:25;-113;-85;31.976470588235;-3.9764705882353
2024-04-07 10:26;-113;-85;32.06976744186;-4.0697674418605
2024-04-07 10:27;-112;-83;32.172413793103;-3.1724137931034
2024-04-07 10:28;-111;-81;32.272727272727;-2.2727272727273
2024-04-07 10:29;-110;-79;32.359550561798;-1.3595505617978
2024-04-07 10:30;-109;-77;32.455555555556;-0.45555555555556
2024-04-07 10:31;-109;-75;32.56043956044;1.4395604395604
2024-04-07 10:32;-108;-75;32.673913043478;0.32608695652174
2024-04-07 10:33;-107;-76;32.784946236559;-1.7849462365591
2024-04-07 10:34;-106;-76;32.893617021277;-2.8936170212766
2024-04-07 10:35;-105;-76;33;-4
2024-04-07 10:36;-105;-76;33.104166666667;-4.1041666666667
2024-04-07 10:37;-104;-74;33.19587628866;-3.1958762886598
2024-04-07 10:38;-103;-72;33.285714285714;-2.2857142857143
2024-04-07 10:39;-102;-70;33.393939393939;-1.3939393939394
2024-04-07 10:40;-101;-67;33.51;0.49
2024-04-07 10:41;-101;-66;33.633663366337;1.3663366336634
2024-04-07 10:42;-100;-65;33.764705882353;1.2352941176471
2024-04-07 10:43;-99;-65;33.893203883495;0.10679611650485
2024-04-07 10:44;-98;-66;34.028846153846;-2.0288461538462
2024-04-07 10:45;-97;-67;34.152380952381;-4.152380952381
2024-04-07 10:46;-96;-67;34.27358490566;-5.2735849056604
2024-04-07 10:47;-95;-66;34.383177570093;-5.3831775700935
2024-04-07 10:48;-95;-64;34.5;-3.5
2024-04-07 10:49;-94;-62;34.614678899083;-2.6146788990826
2024-04-07 10:50;-93;-60;34.736363636364;-1.7363636363636
2024-04-07 10:51;-92;-58;34.864864864865;-0.86486486486486
2024-04-07 10:52;-91;-57;35;-1
2024-04-07 10:53;-90;-57;35.132743362832;-2.1327433628319
2024-04-07 10:54;-89;-58;35.263157894737;-4.2631578947368
2024-04-07 10:55;-88;-58;35.391304347826;-5.3913043478261
2024-04-07 10:56;-87;-56;35.508620689655;-4.5086206896552
2024-04-07 10:57;-86;-55;35.623931623932;-4.6239316239316
2024-04-07 10:58;-86;-53;35.745762711864;-2.7457627118644
2024-04-07 10:59;-85;-50;35.865546218487;-0.8655462184874
2024-04-07 11:00;-84;-48;35.983333333333;0.016666666666666
2024-04-07 11:01;-83;-46;36.175;0.825
2024-04-07 11:02;-82;-45;36.383333333333;0.61666666666667
2024-04-07 11:03;-81;-45;36.591666666667;-0.59166666666667
2024-04-07 11:04;-80;-45;36.808333333333;-1.8083333333333
2024-04-07 11:05;-79;-46;37.033333333333;-4.0333333333333
2024-04-07 11:06;-78;-45;37.25;-4.25
2024-04-07 11:07;-77;-43;37.458333333333;-3.4583333333333
2024-04-07 11:08;-76;-41;37.658333333333;-2.6583333333333
2024-04-07 11:09;-75;-38;37.858333333333;-0.85833333333333
2024-04-07 11:10;-74;-36;38.058333333333;-0.05833333333333
2024-04-07 11:11;-73;-34;38.258333333333;0.74166666666667
2024-04-07 11:12;-72;-33;38.466666666667;0.53333333333333
2024-04-07 11:13;-71;-33;38.683333333333;-0.68333333333333
2024-04-07 11:14;-70;-33;38.908333333333;-1.9083333333333
2024-04-07 11:15;-69;-33;39.15;-3.15
2024-04-07 11:16;-68;-32;39.408333333333;-3.4083333333333
2024-04-07 11:17;-67;-31;39.658333333333;-3.6583333333333
2024-04-07 11:18;-66;-29;39.908333333333;-2.9083333333333
2024-04-07 11:19;-65;-27;40.15;-2.15
2024-04-07 11:20;-64;-25;40.383333333333;-1.3833333333333
2024-04-07 11:21;-62;-22;40.616666666667;-0.61666666666667
2024-04-07 11:22;-61;-20;40.841666666667;0.15833333333333
2024-04-07 11:23;-60;-19;41.075;-0.075000000000003
2024-04-07 11:24;-59;-18;41.325;-0.325
2024-04-07 11:25;-58;-18;41.6;-1.6
2024-04-07 11:26;-57;-16;41.883333333333;-0.88333333333333
2024-04-07 11:27;-56;-15;42.175;-1.175
2024-04-07 11:28;-54;-14;42.458333333333;-2.4583333333333
2024-04-07 11:29;-53;-12;42.741666666667;-1.7416666666667
2024-04-07 11:30;-52;-10;43.008333333333;-1.0083333333333
2024-04-07 11:31;-51;-8;43.258333333333;-0.25833333333333
2024-04-07 11:32;-50;-7;43.5;-0.5
2024-04-07 11:33;-48;-5;43.766666666667;-0.76666666666667
2024-04-07 11:34;-47;-4;44.058333333333;-1.0583333333333
2024-04-07 11:35;-46;-3;44.366666666667;-1.3666666666667
2024-04-07 11:36;-44;-2;44.691666666667;-2.6916666666667
2024-04-07 11:37;-43;-1;45.016666666667;-3.0166666666667
2024-04-07 11:38;-42;2;45.316666666667;-1.3166666666667
2024-04-07 11:39;-40;5;45.6;-0.6
2024-04-07 11:40;-39;7;45.866666666667;0.13333333333333
2024-04-07 11:41;-38;9;46.108333333333;0.89166666666667
2024-04-07 11:42;-36;11;46.358333333333;0.64166666666667
2024-04-07 11:43;-35;13;46.625;1.375
2024-04-07 11:44;-33;14;46.908333333333;0.091666666666669
2024-04-07 11:45;-32;15;47.216666666667;-0.21666666666667
2024-04-07 11:46;-30;16;47.541666666667;-1.5416666666667
2024-04-07 11:47;-29;18;47.875;-0.875
2024-04-07 11:48;-27;20;48.191666666667;-1.1916666666667
2024-04-07 11:49;-26;22;48.483333333333;-0.48333333333333
2024-04-07 11:50;-24;25;48.766666666667;0.23333333333333
2024-04-07 11:51;-23;27;49.041666666667;0.95833333333334
2024-04-07 11:52;-21;29;49.308333333333;0.69166666666667
2024-04-07 11:53;-19;31;49.583333333333;0.41666666666666
2024-04-07 11:54;-18;32;49.883333333333;0.11666666666667
2024-04-07 11:55;-16;33;50.2;-1.2
2024-04-07 11:56;-14;35;50.516666666667;-1.5166666666667
2024-04-07 11:57;-12;38;50.816666666667;-0.81666666666667
2024-04-07 11:58;-11;39;51.1;-1.1
2024-04-07 11:59;-9;41;51.358333333333;-1.3583333333333
2024-04-07 12:00;-7;43;51.6;-1.6
2024-04-07 12:01;-5;45;51.841666666667;-1.8416666666667
2024-04-07 12:02;-3;47;52.083333333333;-2.0833333333333
2024-04-07 12:03;-2;49;52.333333333333;-1.3333333333333
2024-04-07 12:04;0;52;52.575;-0.575
2024-04-07 12:05;2;54;52.816666666667;-0.81666666666667
2024-04-07 12:06;4;56;53.066666666667;-1.0666666666667
2024-04-07 12:07;6;59;53.3;-0.3
2024-04-07 12:08;8;61;53.516666666667;-0.51666666666667
2024-04-07 12:09;10;63;53.733333333333;-0.73333333333333
2024-04-07 12:10;12;65;53.941666666667;-0.94166666666667
2024-04-07 12:11;14;67;54.141666666667;-1.1416666666667
2024-04-07 12:12;16;69;54.333333333333;-1.3333333333333
2024-04-07 12:13;18;71;54.508333333333;-1.5083333333333
2024-04-07 12:14;20;74;54.675;-0.675
2024-04-07 12:15;22;78;54.833333333333;1.1666666666667
2024-04-07 12:16;24;81;54.983333333333;2.0166666666667
2024-04-07 12:17;27;84;55.141666666667;1.8583333333333
2024-04-07 12:18;29;86;55.3;1.7
2024-04-07 12:19;31;89;55.458333333333;2.5416666666667
2024-04-07 12:20;33;91;55.6;2.4
2024-04-07 12:21;35;92;55.733333333333;1.2666666666667
2024-04-07 12:22;37;95;55.841666666667;2.1583333333333
2024-04-07 12:23;40;99;55.925;3.075
2024-04-07 12:24;42;103;56;5
2024-04-07 12:25;44;106;56.066666666667;5.9333333333333
2024-04-07 12:26;46;109;56.15;6.85
2024-04-07 12:27;49;112;56.233333333333;6.7666666666667
2024-04-07 12:28;51;115;56.316666666667;7.6833333333333
2024-04-07 12:29;53;116;56.416666666667;6.5833333333333
2024-04-07 12:30;56;118;56.5;5.5
2024-04-07 12:31;58;121;56.558333333333;6.4416666666667
2024-04-07 12:32;60;125;56.591666666667;8.4083333333333
2024-04-07 12:33;62;128;56.6;9.4
2024-04-07 12:34;65;132;56.6;10.4
2024-04-07 12:35;67;135;56.591666666667;11.408333333333
2024-04-07 12:36;69;137;56.583333333333;11.416666666667
2024-04-07 12:37;72;138;56.591666666667;9.4083333333333
2024-04-07 12:38;74;139;56.608333333333;8.3916666666667
2024-04-07 12:39;76;140;56.608333333333;7.3916666666667
2024-04-07 12:40;79;142;56.591666666667;6.4083333333333
2024-04-07 12:41;81;146;56.55;8.45
2024-04-07 12:42;83;150;56.491666666667;10.508333333333
2024-04-07 12:43;85;153;56.416666666667;11.583333333333
2024-04-07 12:44;88;157;56.325;12.675
2024-04-07 12:45;90;159;56.241666666667;12.758333333333
2024-04-07 12:46;92;161;56.166666666667;12.833333333333
2024-04-07 12:47;95;162;56.108333333333;10.891666666667
2024-04-07 12:48;97;163;56.033333333333;9.9666666666667
2024-04-07 12:49;99;165;55.95;10.05
2024-04-07 12:50;101;167;55.85;10.15
2024-04-07 12:51;103;169;55.733333333333;10.266666666667
2024-04-07 12:52;106;173;55.6;11.4
2024-04-07 12:53;108;177;55.466666666667;13.533333333333
2024-04-07 12:54;110;179;55.341666666667;13.658333333333
2024-04-07 12:55;112;180;55.225;12.775
2024-04-07 12:56;114;181;55.125;11.875
2024-04-07 12:57;116;181;55.025;9.975
2024-04-07 12:58;118;182;54.9;9.1
2024-04-07 12:59;120;184;54.766666666667;9.2333333333333
2024-04-07 13:00;122;187;54.625;10.375
2024-04-07 13:01;124;190;54.483333333333;11.516666666667
2024-04-07 13:02;126;193;54.341666666667;12.658333333333
2024-04-07 13:03;128;193;54.208333333333;10.791666666667
2024-04-07 13:04;130;194;54.075;9.925
2024-04-07 13:05;132;195;53.941666666667;9.0583333333333
2024-04-07 13:06;134;195;53.816666666667;7.1833333333333
2024-04-07 13:07;136;196;53.683333333333;6.3166666666667
2024-04-07 13:08;137;198;53.541666666667;7.4583333333333
2024-04-07 13:09;139;201;53.391666666667;8.6083333333333
2024-04-07 13:10;141;203;53.241666666667;8.7583333333333
2024-04-07 13:11;142;204;53.091666666667;8.9083333333333
2024-04-07 13:12;144;204;52.941666666667;7.0583333333333
2024-04-07 13:13;146;204;52.8;5.2
2024-04-07 13:14;147;203;52.658333333333;3.3416666666667
2024-04-07 13:15;149;203;52.516666666667;1.4833333333333
2024-04-07 13:16;150;205;52.358333333333;2.6416666666667
2024-04-07 13:17;152;207;52.183333333333;2.8166666666667
2024-04-07 13:18;153;209;52.008333333333;3.9916666666667
2024-04-07 13:19;155;210;51.833333333333;3.1666666666667
2024-04-07 13:20;156;211;51.641666666667;3.3583333333333
2024-04-07 13:21;157;210;51.458333333333;1.5416666666667
2024-04-07 13:22;159;210;51.283333333333;-0.28333333333333
2024-04-07 13:23;160;210;51.091666666667;-1.0916666666667
2024-04-07 13:24;161;210;50.9;-1.9
2024-04-07 13:25;162;212;50.683333333333;-0.68333333333333
2024-04-07 13:26;163;214;50.458333333333;0.54166666666666
2024-04-07 13:27;164;215;50.233333333333;0.76666666666667
2024-04-07 13:28;165;217;50;2
2024-04-07 13:29;166;217;49.766666666667;1.2333333333333
2024-04-07 13:30;167;216;49.533333333333;-0.53333333333333
2024-04-07 13:31;168;215;49.308333333333;-2.3083333333333
2024-04-07 13:32;169;213;49.083333333333;-5.0833333333333
2024-04-07 13:33;170;213;48.841666666667;-5.8416666666667
2024-04-07 13:34;171;213;48.591666666667;-6.5916666666667
2024-04-07 13:35;171;213;48.341666666667;-6.3416666666667
2024-04-07 13:36;172;215;48.083333333333;-5.0833333333333
2024-04-07 13:37;173;217;47.825;-3.825
2024-04-07 13:38;174;218;47.575;-3.575
2024-04-07 13:39;174;217;47.333333333333;-4.3333333333333
2024-04-07 13:40;175;216;47.108333333333;-6.1083333333333
2024-04-07 13:41;175;215;46.883333333333;-6.8833333333333
2024-04-07 13:42;176;214;46.641666666667;-8.6416666666667
2024-04-07 13:43;176;213;46.383333333333;-9.3833333333333
2024-04-07 13:44;177;214;46.125;-9.125
2024-04-07 13:45;177;215;45.85;-7.85
2024-04-07 13:46;177;216;45.583333333333;-6.5833333333333
2024-04-07 13:47;178;216;45.308333333333;-7.3083333333333
2024-04-07 13:48;178;215;45.05;-8.05
2024-04-07 13:49;178;214;44.808333333333;-8.8083333333333
2024-04-07 13:50;178;213;44.558333333333;-9.5583333333333
2024-04-07 13:51;179;213;44.316666666667;-10.316666666667
2024-04-07 13:52;179;213;44.083333333333;-10.083333333333
2024-04-07 13:53;179;214;43.833333333333;-8.8333333333333
2024-04-07 13:54;179;215;43.558333333333;-7.5583333333333
2024-04-07 13:55;179;216;43.283333333333;-6.2833333333333
2024-04-07 13:56;179;216;43.016666666667;-6.0166666666667
2024-04-07 13:57;179;214;42.758333333333;-7.7583333333333
2024-04-07 13:58;179;213;42.508333333333;-8.5083333333333
2024-04-07 13:59;179;212;42.266666666667;-9.2666666666667
2024-04-07 14:00;179;212;42.033333333333;-9.0333333333333
2024-04-07 14:01;179;212;41.791666666667;-8.7916666666667
2024-04-07 14:02;179;213;41.533333333333;-7.5333333333333
2024-04-07 14:03;179;214;41.275;-6.275
2024-04-07 14:04;179;215;41.033333333333;-5.0333333333333
2024-04-07 14:05;178;215;40.791666666667;-3.7916666666667
2024-04-07 14:06;178;214;40.558333333333;-4.5583333333333
2024-04-07 14:07;178;214;40.333333333333;-4.3333333333333
2024-04-07 14:08;178;213;40.125;-5.125
2024-04-07 14:09;178;213;39.908333333333;-4.9083333333333
2024-04-07 14:10;177;212;39.683333333333;-4.6833333333333
2024-04-07 14:11;177;212;39.458333333333;-4.4583333333333
2024-04-07 14:12;177;213;39.241666666667;-3.2416666666667
2024-04-07 14:13;177;213;39.033333333333;-3.0333333333333
2024-04-07 14:14;176;213;38.833333333333;-1.8333333333333
2024-04-07 14:15;176;213;38.65;-1.65
2024-04-07 14:16;176;212;38.483333333333;-2.4833333333333
2024-04-07 14:17;175;211;38.308333333333;-2.3083333333333
2024-04-07 14:18;175;211;38.125;-2.125
2024-04-07 14:19;175;210;37.941666666667;-2.9416666666667
2024-04-07 14:20;174;210;37.758333333333;-1.7583333333333
2024-04-07 14:21;174;210;37.566666666667;-1.5666666666667
2024-04-07 14:22;174;209;37.391666666667;-2.3916666666667
2024-04-07 14:23;173;209;37.241666666667;-1.2416666666667
2024-04-07 14:24;173;208;37.091666666667;-2.0916666666667
2024-04-07 14:25;173;208;36.958333333333;-1.9583333333333
2024-04-07 14:26;172;208;36.808333333333;-0.80833333333333
2024-04-07 14:27;172;207;36.65;-1.65
2024-04-07 14:28;171;207;36.483333333333;-0.48333333333333
2024-04-07 14:29;171;206;36.3;-1.3
2024-04-07 14:30;171;206;36.125;-1.125
2024-04-07 14:31;170;206;35.966666666667;0.033333333333331
2024-04-07 14:32;170;206;35.816666666667;0.18333333333333
2024-04-07 14:33;170;206;35.7;0.3
2024-04-07 14:34;169;206;35.591666666667;1.4083333333333
2024-04-07 14:35;169;206;35.5;1.5
2024-04-07 14:36;168;205;35.4;1.6
2024-04-07 14:37;168;204;35.283333333333;0.71666666666667
2024-04-07 14:38;168;204;35.166666666667;0.83333333333334
2024-04-07 14:39;167;204;35.041666666667;1.9583333333333
2024-04-07 14:40;167;203;34.925;1.075
2024-04-07 14:41;167;203;34.825;1.175
2024-04-07 14:42;166;202;34.733333333333;1.2666666666667
2024-04-07 14:43;166;203;34.658333333333;2.3416666666667
2024-04-07 14:44;166;202;34.591666666667;1.4083333333333
2024-04-07 14:45;165;202;34.525;2.475
2024-04-07 14:46;165;201;34.45;1.55
2024-04-07 14:47;165;201;34.366666666667;1.6333333333333
2024-04-07 14:48;164;201;34.291666666667;2.7083333333333
2024-04-07 14:49;164;200;34.225;1.775
2024-04-07 14:50;164;201;34.166666666667;2.8333333333333
2024-04-07 14:51;163;201;34.116666666667;3.8833333333333
2024-04-07 14:52;163;200;34.075;2.925
2024-04-07 14:53;163;199;34.041666666667;1.9583333333333
2024-04-07 14:54;163;199;34;2
2024-04-07 14:55;162;198;33.958333333333;2.0416666666667
2024-04-07 14:56;162;198;33.908333333333;2.0916666666667
2024-04-07 14:57;162;197;33.858333333333;1.1416666666667
2024-04-07 14:58;162;197;33.808333333333;1.1916666666667
2024-04-07 14:59;161;197;33.758333333333;2.2416666666667
2024-04-07 15:00;161;197;33.716666666667;2.2833333333333
2024-04-07 15:01;161;196;33.675;1.325
2024-04-07 15:02;160;196;33.633333333333;2.3666666666667
2024-04-07 15:03;160;196;33.591666666667;2.4083333333333
2024-04-07 15:04;160;195;33.541666666667;1.4583333333333
2024-04-07 15:05;160;195;33.475;1.525
2024-04-07 15:06;160;194;33.391666666667;0.60833333333333
2024-04-07 15:07;159;194;33.316666666667;1.6833333333333
2024-04-07 15:08;159;194;33.241666666667;1.7583333333333
2024-04-07 15:09;159;194;33.166666666667;1.8333333333333
2024-04-07 15:10;159;194;33.1;1.9
2024-04-07 15:11;158;194;33.033333333333;2.9666666666667
2024-04-07 15:12;158;193;32.966666666667;2.0333333333333
2024-04-07 15:13;158;192;32.891666666667;1.1083333333333
2024-04-07 15:14;158;192;32.808333333333;1.1916666666667
2024-04-07 15:15;157;191;32.716666666667;1.2833333333333
2024-04-07 15:16;157;191;32.625;1.375
2024-04-07 15:17;157;190;32.533333333333;0.46666666666667
2024-04-07 15:18;156;190;32.441666666667;1.5583333333333
2024-04-07 15:19;156;189;32.341666666667;0.65833333333333
2024-04-07 15:20;156;188;32.25;-0.25
2024-04-07 15:21;156;188;32.141666666667;-0.14166666666667
2024-04-07 15:22;155;188;32.041666666667;0.95833333333334
2024-04-07 15:23;155;187;31.95;0.050000000000001
2024-04-07 15:24;155;188;31.841666666667;1.1583333333333
2024-04-07 15:25;155;187;31.741666666667;0.25833333333333
2024-04-07 15:26;154;186;31.641666666667;0.35833333333333
2024-04-07 15:27;154;185;31.541666666667;-0.54166666666667
2024-04-07 15:28;154;184;31.441666666667;-1.4416666666667
2024-04-07 15:29;153;183;31.325;-1.325
2024-04-07 15:30;153;183;31.208333333333;-1.2083333333333
2024-04-07 15:31;153;182;31.091666666667;-2.0916666666667
2024-04-07 15:32;152;182;30.958333333333;-0.95833333333333
2024-04-07 15:33;152;182;30.833333333333;-0.83333333333333
2024-04-07 15:34;151;182;30.708333333333;0.29166666666667
2024-04-07 15:35;151;181;30.575;-0.575
2024-04-07 15:36;151;180;30.441666666667;-1.4416666666667
2024-04-07 15:37;150;180;30.3;-0.3
2024-04-07 15:38;150;179;30.175;-1.175
2024-04-07 15:39;149;178;30.041666666667;-1.0416666666667
2024-04-07 15:40;149;178;29.891666666667;-0.89166666666667
2024-04-07 15:41;148;177;29.758333333333;-0.75833333333333
2024-04-07 15:42;148;177;29.625;-0.625
2024-04-07 15:43;147;176;29.491666666667;-0.49166666666667
2024-04-07 15:44;147;176;29.35;-0.35
2024-04-07 15:45;146;175;29.216666666667;-0.21666666666667
2024-04-07 15:46;146;175;29.075;-0.074999999999999
2024-04-07 15:47;145;174;28.933333333333;0.066666666666666
2024-04-07 15:48;145;174;28.791666666667;0.20833333333333
2024-04-07 15:49;144;173;28.633333333333;0.36666666666667
2024-04-07 15:50;143;172;28.475;0.525
2024-04-07 15:51;143;172;28.316666666667;0.68333333333333
2024-04-07 15:52;142;172;28.15;1.85
2024-04-07 15:53;142;172;27.991666666667;2.0083333333333
2024-04-07 15:54;141;172;27.85;3.15
2024-04-07 15:55;140;171;27.708333333333;3.2916666666667
2024-04-07 15:56;139;170;27.566666666667;3.4333333333333
2024-04-07 15:57;139;168;27.425;1.575
2024-04-07 15:58;138;166;27.275;0.725
2024-04-07 15:59;137;165;27.133333333333;0.86666666666667
2024-04-07 16:00;137;165;26.983333333333;1.0166666666667
2024-04-07 16:01;136;164;26.841666666667;1.1583333333333
2024-04-07 16:02;135;164;26.708333333333;2.2916666666667
2024-04-07 16:03;134;163;26.558333333333;2.4416666666667
2024-04-07 16:04;133;161;26.416666666667;1.5833333333333
2024-04-07 16:05;133;160;26.275;0.725
2024-04-07 16:06;132;159;26.133333333333;0.86666666666667
2024-04-07 16:07;131;158;25.991666666667;1.0083333333333
2024-04-07 16:08;130;156;25.841666666667;0.15833333333333
2024-04-07 16:09;129;156;25.7;1.3
2024-04-07 16:10;128;155;25.558333333333;1.4416666666667
2024-04-07 16:11;127;154;25.425;1.575
2024-04-07 16:12;126;153;25.275;1.725
2024-04-07 16:13;125;151;25.141666666667;0.85833333333333
2024-04-07 16:14;124;150;25.008333333333;0.99166666666667
2024-04-07 16:15;123;149;24.875;1.125
2024-04-07 16:16;122;147;24.741666666667;0.25833333333333
2024-04-07 16:17;121;146;24.608333333333;0.39166666666667
2024-04-07 16:18;120;144;24.483333333333;-0.48333333333333
2024-04-07 16:19;119;143;24.358333333333;-0.35833333333333
2024-04-07 16:20;118;141;24.258333333333;-1.2583333333333
2024-04-07 16:21;117;141;24.166666666667;-0.16666666666667
2024-04-07 16:22;116;140;24.083333333333;-0.083333333333332
2024-04-07 16:23;115;138;23.991666666667;-0.99166666666667
2024-04-07 16:24;114;137;23.9;-0.9
2024-04-07 16:25;113;136;23.791666666667;-0.79166666666667
2024-04-07 16:26;111;135;23.7;0.3
2024-04-07 16:27;110;133;23.6;-0.6
2024-04-07 16:28;109;131;23.516666666667;-1.5166666666667
2024-04-07 16:29;108;129;23.441666666667;-2.4416666666667
2024-04-07 16:30;107;128;23.375;-2.375
2024-04-07 16:31;106;126;23.3;-3.3
2024-04-07 16:32;104;125;23.233333333333;-2.2333333333333
2024-04-07 16:33;103;124;23.158333333333;-2.1583333333333
2024-04-07 16:34;102;123;23.083333333333;-2.0833333333333
2024-04-07 16:35;101;122;22.991666666667;-1.9916666666667
2024-04-07 16:36;100;120;22.916666666667;-2.9166666666667
2024-04-07 16:37;98;119;22.85;-1.85
2024-04-07 16:38;97;117;22.775;-2.775
2024-04-07 16:39;96;115;22.708333333333;-3.7083333333333
2024-04-07 16:40;94;114;22.65;-2.65
2024-04-07 16:41;93;113;22.591666666667;-2.5916666666667
2024-04-07 16:42;92;112;22.533333333333;-2.5333333333333
2024-04-07 16:43;91;111;22.475;-2.475
2024-04-07 16:44;89;109;22.408333333333;-2.4083333333333
2024-04-07 16:45;88;108;22.341666666667;-2.3416666666667
2024-04-07 16:46;87;106;22.275;-3.275
2024-04-07 16:47;85;104;22.216666666667;-3.2166666666667
2024-04-07 16:48;84;102;22.158333333333;-4.1583333333333
2024-04-07 16:49;83;100;22.1;-5.1
2024-04-07 16:50;81;99;22.041666666667;-4.0416666666667
2024-04-07 16:51;80;98;21.991666666667;-3.9916666666667
2024-04-07 16:52;79;97;21.941666666667;-3.9416666666667
2024-04-07 16:53;77;96;21.875;-2.875
2024-04-07 16:54;76;95;21.808333333333;-2.8083333333333
2024-04-07 16:55;74;93;21.741666666667;-2.7416666666667
2024-04-07 16:56;73;92;21.666666666667;-2.6666666666667
2024-04-07 16:57;72;89;21.591666666667;-4.5916666666667
2024-04-07 16:58;70;88;21.541666666667;-3.5416666666667
2024-04-07 16:59;69;87;21.508333333333;-3.5083333333333
2024-04-07 17:00;67;86;21.466666666667;-2.4666666666667
2024-04-07 17:01;66;85;21.433333333333;-2.4333333333333
2024-04-07 17:02;65;83;21.4;-3.4
2024-04-07 17:03;63;82;21.358333333333;-2.3583333333333
2024-04-07 17:04;62;80;21.308333333333;-3.3083333333333
2024-04-07 17:05;60;78;21.266666666667;-3.2666666666667
2024-04-07 17:06;59;76;21.225;-4.225
2024-04-07 17:07;58;75;21.191666666667;-4.1916666666667
2024-04-07 17:08;56;74;21.15;-3.15
2024-04-07 17:09;55;73;21.125;-3.125
2024-04-07 17:10;53;72;21.091666666667;-2.0916666666667
2024-04-07 17:11;52;70;21.058333333333;-3.0583333333333
2024-04-07 17:12;50;69;21.016666666667;-2.0166666666667
2024-04-07 17:13;49;67;20.983333333333;-2.9833333333333
2024-04-07 17:14;47;65;20.95;-2.95
2024-04-07 17:15;46;64;20.916666666667;-2.9166666666667
2024-04-07 17:16;44;62;20.883333333333;-2.8833333333333
2024-04-07 17:17;43;61;20.858333333333;-2.8583333333333
2024-04-07 17:18;42;61;20.841666666667;-1.8416666666667
2024-04-07 17:19;40;61;20.833333333333;0.16666666666667
2024-04-07 17:20;39;60;20.833333333333;0.16666666666667
2024-04-07 17:21;37;59;20.841666666667;1.1583333333333
2024-04-07 17:22;36;58;20.841666666667;1.1583333333333
2024-04-07 17:23;34;55;20.841666666667;0.15833333333333
2024-04-07 17:24;33;53;20.841666666667;-0.84166666666667
2024-04-07 17:25;31;52;20.841666666667;0.15833333333333
2024-04-07 17:26;30;50;20.85;-0.85